Weather History for Clarion, IA

Change the Weather History Date:

Monday, October 7, 2013

  Actual Average Record
Temperature  
Mean Temperature 55 °F -  
Max Temperature 73 °F 64 °F 85 °F (1966)
Min Temperature 37 °F 38 °F 15 °F (2012)
Degree Days  
Heating Degree Days 10    
Growing Degree Days 5 (Base 50)    
Moisture  
Dew Point 42 °F    
Average Humidity 69    
Maximum Humidity 100    
Minimum Humidity 33    
Precipitation  
Precipitation 0.24 in - - ()
Sea Level Pressure  
Sea Level Pressure 29.96 in    
Wind  
Wind Speed 7 mph (West)    
Max Wind Speed 14 mph    
Max Gust Speed 22 mph    
Visibility 10 miles    
Events      
Averages and records for this station are not official NWS values.
T = Trace of Precipitation, MM = Missing Value Source: NWS Daily Summary

Daily Weather History Graph

Daily Weather History Graph

Search for Another Location

Airport:

Trip Planner

Search our weather history database for the weather conditions in past years. The results will help you decide how hot, cold, wet, or windy it might be!

Date:

Astronomy

Oct. 07, 2013 Rise Set
Actual Time 7:19 AM CDT 6:45 PM CDT
Civil Twilight 6:51 AM CDT 7:13 PM CDT
Nautical Twilight 6:18 AM CDT 7:46 PM CDT
Astronomical Twilight 5:45 AM CDT 8:19 PM CDT
Moon 10:14 AM CDT (10/7) 8:26 PM CDT (10/7)
Length of Visible Light 12h 22m
Length of Day
11h 26m
Waxing Crescent, 9% of the Moon is Illuminated
Oct 7
Waxing Crescent
Oct 11
First Quarter
Oct 18
Full
Oct 26
Last Quarter
Nov 3
New

Hourly Weather History & Observations

Time (CDT) Temp. Windchill Dew Point Humidity Pressure Visibility Wind Dir Wind Speed Gust Speed Precip Events Conditions
12:15 AM 46.4 °F 41.9 °F 44.6 °F 93% 29.90 in 10.0 mi NW 9.2 mph - N/A   Clear
12:35 AM 46.4 °F 41.9 °F 42.8 °F 87% 29.90 in 10.0 mi NW 9.2 mph - N/A   Clear
12:55 AM 44.6 °F 40.7 °F 42.8 °F 93% 29.91 in 10.0 mi NW 6.9 mph - N/A   Clear
1:15 AM 44.6 °F 40.7 °F 41.0 °F 87% 29.91 in 10.0 mi NW 6.9 mph - N/A   Clear
1:35 AM 42.8 °F 39.3 °F 41.0 °F 93% 29.92 in 10.0 mi NW 5.8 mph - N/A   Clear
1:55 AM 42.8 °F 40.1 °F 41.0 °F 93% 29.92 in 10.0 mi NW 4.6 mph - N/A   Clear
2:15 AM 41.0 °F 38.0 °F 39.2 °F 93% 29.92 in 10.0 mi WNW 4.6 mph - N/A   Clear
2:55 AM 39.2 °F 35.9 °F 37.4 °F 93% 29.92 in 10.0 mi West 4.6 mph - N/A   Clear
3:15 AM 39.2 °F 37.0 °F 37.4 °F 93% 29.93 in 10.0 mi West 3.5 mph - N/A   Clear
3:35 AM 39.2 °F - 37.4 °F 93% 29.93 in 10.0 mi Calm Calm - N/A   Clear
3:55 AM 39.2 °F - 37.4 °F 93% 29.92 in 10.0 mi Calm Calm - N/A   Clear
4:15 AM 39.2 °F - 37.4 °F 93% 29.93 in 10.0 mi Calm Calm - N/A   Clear
4:35 AM 39.2 °F - 37.4 °F 93% 29.93 in 10.0 mi Calm Calm - N/A   Clear
4:55 AM 37.4 °F 33.8 °F 35.6 °F 93% 29.93 in 10.0 mi WSW 4.6 mph - N/A   Clear
5:15 AM 39.2 °F 35.9 °F 37.4 °F 93% 29.93 in 10.0 mi West 4.6 mph - N/A   Clear
5:35 AM 39.2 °F 35.9 °F 37.4 °F 93% 29.94 in 10.0 mi West 4.6 mph - N/A   Clear
5:55 AM 39.2 °F 35.9 °F 37.4 °F 93% 29.94 in 10.0 mi WSW 4.6 mph - N/A   Clear
6:15 AM 39.2 °F 35.0 °F 37.4 °F 93% 29.94 in 10.0 mi West 5.8 mph - N/A   Clear
6:35 AM 39.2 °F 37.0 °F 37.4 °F 93% 29.94 in 10.0 mi WSW 3.5 mph - N/A   Clear
6:55 AM 37.4 °F 33.8 °F 35.6 °F 93% 29.95 in 10.0 mi SW 4.6 mph - N/A   Clear
7:15 AM 37.4 °F 32.8 °F 35.6 °F 93% 29.95 in 10.0 mi SW 5.8 mph - N/A   Clear
7:35 AM 37.4 °F 33.8 °F 37.4 °F 100% 29.95 in 10.0 mi SW 4.6 mph - N/A   Clear
7:55 AM 39.2 °F 35.9 °F 37.4 °F 93% 29.96 in 10.0 mi SSW 4.6 mph - N/A   Clear
8:15 AM 41.0 °F 37.1 °F 39.2 °F 93% 29.97 in 10.0 mi SW 5.8 mph - N/A   Clear
8:35 AM 42.8 °F 40.1 °F 41.0 °F 93% 29.98 in 10.0 mi WSW 4.6 mph - N/A   Clear
8:55 AM 44.6 °F 40.7 °F 42.8 °F 93% 29.98 in 10.0 mi WSW 6.9 mph - N/A   Clear
9:15 AM 48.2 °F - 42.8 °F 82% 29.99 in 10.0 mi West 8.1 mph - N/A   Clear
9:35 AM 50.0 °F - 42.8 °F 76% 30.00 in 10.0 mi West 6.9 mph - N/A   Clear
9:55 AM - - - N/A% - - North - - N/A   Unknown
10:15 AM 53.6 °F - 44.6 °F 72% 30.00 in 10.0 mi West 9.2 mph - N/A   Unknown
10:35 AM 55.4 °F - 44.6 °F 67% 30.00 in 10.0 mi WNW 8.1 mph - N/A   Clear
10:55 AM 57.2 °F - 44.6 °F 63% 30.00 in 10.0 mi West 9.2 mph - 0.24 in   Clear
11:15 AM 59.0 °F - 44.6 °F 59% 30.01 in 10.0 mi WNW 9.2 mph - N/A   Clear
11:35 AM 60.8 °F - 46.4 °F 59% 30.01 in 10.0 mi WNW 9.2 mph - N/A   Clear
11:55 AM 60.8 °F - 46.4 °F 59% 30.00 in 10.0 mi WSW 9.2 mph - N/A   Clear
12:15 PM 62.6 °F - 46.4 °F 55% 30.00 in 10.0 mi West 10.4 mph - N/A   Clear
12:35 PM 64.4 °F - 46.4 °F 52% 30.00 in 10.0 mi WNW 10.4 mph - N/A   Clear
12:55 PM 66.2 °F - 48.2 °F 52% 30.00 in 10.0 mi WNW 9.2 mph - N/A   Clear
1:15 PM 68.0 °F - 48.2 °F 49% 29.99 in 10.0 mi WSW 9.2 mph - N/A   Clear
1:35 PM 68.0 °F - 46.4 °F 46% 29.99 in 10.0 mi West 10.4 mph - N/A   Clear
1:55 PM 69.8 °F - 46.4 °F 43% 29.98 in 10.0 mi WNW 10.4 mph 17.3 mph N/A   Clear
2:15 PM 71.6 °F - 46.4 °F 41% 29.98 in 10.0 mi WNW 11.5 mph - N/A   Clear
2:35 PM 71.6 °F - 44.6 °F 38% 29.98 in 10.0 mi WNW 11.5 mph 20.7 mph N/A   Clear
2:55 PM 71.6 °F - 44.6 °F 38% 29.98 in 10.0 mi WNW 13.8 mph 21.9 mph N/A   Clear
3:15 PM 73.4 °F - 44.6 °F 36% 29.98 in 10.0 mi West 6.9 mph 17.3 mph N/A   Clear
3:35 PM 73.4 °F - 44.6 °F 36% 29.98 in 10.0 mi West 9.2 mph 16.1 mph N/A   Clear
3:55 PM 73.4 °F - 44.6 °F 36% 29.98 in 10.0 mi West 10.4 mph 17.3 mph N/A   Clear
4:15 PM 73.4 °F - 42.8 °F 33% 29.98 in 10.0 mi WNW 8.1 mph 16.1 mph N/A   Clear
4:35 PM 73.4 °F - 42.8 °F 33% 29.97 in 10.0 mi WNW 10.4 mph - N/A   Clear
4:55 PM 73.4 °F - 44.6 °F 36% 29.97 in 10.0 mi WNW 6.9 mph 12.7 mph N/A   Clear
5:15 PM 73.4 °F - 42.8 °F 33% 29.97 in 10.0 mi West 9.2 mph - N/A   Clear
5:35 PM 73.4 °F - 42.8 °F 33% 29.97 in 10.0 mi WNW 6.9 mph - N/A   Clear
5:55 PM 71.6 °F - 42.8 °F 35% 29.97 in 10.0 mi West 4.6 mph - N/A   Clear
6:15 PM 69.8 °F - 44.6 °F 40% 29.97 in 10.0 mi Calm Calm - N/A   Clear
6:35 PM 68.0 °F - 44.6 °F 43% 29.97 in 10.0 mi WSW 3.5 mph - N/A   Clear
6:55 PM 62.6 °F - 44.6 °F 52% 29.98 in 10.0 mi Calm Calm - N/A   Clear
7:15 PM 57.2 °F - 46.4 °F 67% 29.98 in 10.0 mi South 5.8 mph - N/A   Clear
7:35 PM - - - N/A% - - North - - N/A   Unknown
7:55 PM - - - N/A% - - North - - N/A   Unknown
8:15 PM - - - N/A% - - North - - N/A   Unknown
8:35 PM - - - N/A% - - North - - N/A   Unknown
8:55 PM - - - N/A% - - North - - N/A   Unknown
9:15 PM - - - N/A% - - North - - N/A   Unknown
9:35 PM - - - N/A% - - North - - N/A   Unknown
9:55 PM - - - N/A% - - North - - N/A   Unknown
10:15 PM - - - N/A% - - North - - N/A   Unknown
10:35 PM - - - N/A% - - North - - N/A   Unknown
10:55 PM - - - N/A% - - North - - N/A   Unknown
11:15 PM - - - N/A% - - North - - N/A   Unknown
11:35 PM - - - N/A% - - North - - N/A   Unknown
11:55 PM - - - N/A% - - North - - N/A   Unknown